East Taunton, MA

10:56 PM EST on February 11, 2016 (GMT -0500)
Taunton Municipal

Weather History for KTAN - April, 2014

Change the Weather History Date:

Friday, April 11, 2014

  Actual Average Record
Temperature  
Mean Temperature 60 °F -  
Max Temperature 72 °F 56 °F 78 °F (1955)
Min Temperature 50 °F 32 °F 20 °F (1950)
Degree Days  
Heating Degree Days 5    
Growing Degree Days 10 (Base 50)    
Moisture  
Dew Point 42 °F    
Average Humidity 57    
Maximum Humidity 74    
Minimum Humidity 37    
Precipitation  
Precipitation 0.00 in - - ()
Sea Level Pressure  
Sea Level Pressure 29.99 in    
Wind  
Wind Speed 8 mph (SSW)    
Max Wind Speed 15 mph    
Max Gust Speed 22 mph    
Visibility 10 miles    
Events      
Averages and records for this station are not official NWS values.
T = Trace of Precipitation, MM = Missing Value Source: NWS Daily Summary

Daily Weather History Graph

Daily Weather History Graph

Search for Another Location

Airport or City:

Trip Planner

Search our weather history database for the weather conditions in past years. The results will help you decide how hot, cold, wet, or windy it might be!

Date:

Astronomy

Apr. 11, 2014 Rise Set
Actual Time 6:10 AM EDT 7:20 PM EDT
Civil Twilight 5:41 AM EDT 7:49 PM EDT
Nautical Twilight 5:07 AM EDT 8:23 PM EDT
Astronomical Twilight 4:31 AM EDT 8:59 PM EDT
Moon 3:55 PM EDT (4/11) 4:07 AM EDT (4/11)
Length of Visible Light 14h 07m
Length of Day
13h 10m
Waxing Gibbous, 87% of the Moon is Illuminated
Apr 11
Waxing Gibbous
Apr 15
Full
Apr 22
Last Quarter
Apr 29
New
May 6
First Quarter

Hourly Weather History & Observations

Time (EDT) Temp. Dew Point Humidity Pressure Visibility Wind Dir Wind Speed Gust Speed Precip Events Conditions
12:52 AM 50.0 °F 39.9 °F 68% 30.05 in 10.0 mi SSW 9.2 mph - N/A   Clear
1:52 AM 51.1 °F 39.0 °F 63% 30.05 in 10.0 mi SW 9.2 mph - N/A   Mostly Cloudy
2:52 AM 52.0 °F 37.0 °F 57% 30.02 in 10.0 mi South 8.1 mph - N/A   Overcast
3:52 AM 52.0 °F 37.0 °F 57% 29.99 in 10.0 mi South 11.5 mph 20.7 mph N/A   Overcast
4:52 AM 53.1 °F 39.9 °F 61% 29.97 in 10.0 mi SSW 15.0 mph 21.9 mph N/A   Clear
5:52 AM 52.0 °F 41.0 °F 66% 29.97 in 10.0 mi SSW 10.4 mph - N/A   Scattered Clouds
6:52 AM 52.0 °F 42.1 °F 69% 29.99 in 10.0 mi SW 9.2 mph 20.7 mph N/A   Overcast
7:52 AM 53.1 °F 42.1 °F 66% 30.00 in 10.0 mi SW 11.5 mph 18.4 mph N/A   Partly Cloudy
8:52 AM 54.0 °F 42.1 °F 64% 30.00 in 10.0 mi SSW 9.2 mph - N/A   Mostly Cloudy
9:52 AM 55.0 °F 43.0 °F 64% 30.01 in 10.0 mi WSW 5.8 mph - N/A   Overcast
10:52 AM 55.9 °F 43.0 °F 62% 30.01 in 10.0 mi SSW 6.9 mph - N/A   Overcast
11:52 AM 60.1 °F 42.1 °F 51% 30.00 in 10.0 mi SW 8.1 mph - N/A   Scattered Clouds
12:52 PM 64.0 °F 42.1 °F 45% 29.98 in 10.0 mi Variable 5.8 mph - N/A   Scattered Clouds
1:52 PM 68.0 °F 41.0 °F 37% 29.96 in 10.0 mi SSW 9.2 mph - N/A   Partly Cloudy
2:52 PM 68.0 °F 43.0 °F 40% 29.95 in 10.0 mi Variable 6.9 mph 16.1 mph N/A   Clear
3:52 PM 70.0 °F 44.1 °F 39% 29.94 in 10.0 mi SSW 9.2 mph - N/A   Scattered Clouds
4:52 PM 69.1 °F 43.0 °F 39% 29.94 in 10.0 mi SW 11.5 mph - N/A   Partly Cloudy
5:52 PM 66.9 °F 42.1 °F 40% 29.95 in 10.0 mi SSW 6.9 mph - N/A   Scattered Clouds
6:52 PM 64.9 °F 41.0 °F 42% 29.96 in 10.0 mi Variable 5.8 mph - N/A   Scattered Clouds
7:52 PM 59.0 °F 41.0 °F 51% 29.99 in 10.0 mi SSW 5.8 mph - N/A   Clear
8:52 PM 54.0 °F 42.1 °F 64% 30.02 in 10.0 mi Calm Calm - N/A   Mostly Cloudy
9:52 PM 54.0 °F 43.0 °F 66% 30.01 in 10.0 mi Calm Calm - N/A   Overcast
10:52 PM 52.0 °F 44.1 °F 74% 30.01 in 10.0 mi SSE 3.5 mph - N/A   Mostly Cloudy
11:52 PM 53.1 °F 44.1 °F 71% 30.00 in 10.0 mi Calm Calm - N/A   Mostly Cloudy